Regional Weather Roundup
Issued by NWS

Home | Current Version | Previous Version | Graphics & Text | Print | Product List | Glossary On
Versions: 1 2 3 4 5 6 7 8 9 10 11 12 13 14 15 16 17 18 19 20 21 22 23 24 25 26 27 28 29 30 31 32 33 34 35 36 37 38 39 40 41 42 43 44 45 46 47 48 49 50
000
ASUS45 KTFX 100010
RWRMT
MONTANA REGIONAL WEATHER ROUNDUP
NATIONAL WEATHER SERVICE GREAT FALLS MT
500 PM MST TUE FEB 09 2016

NOTE: "FAIR" INDICATES FEW OR NO CLOUDS BELOW 12000 FEET WITH NO
SIGNIFICANT WEATHER AND/OR OBSTRUCTIONS TO VISIBILITY.

MTZ001>007-043-100100-
WEST OF THE DIVIDE

CITY           SKY/WX    TMP DP  RH WIND       PRES   REMARKS
KALISPELL      CLEAR     42  29  59 CALM      30.31F
MISSOULA       CLEAR     39  30  70 CALM      30.32F
BUTTE          CLOUDY    37  28  70 S5        30.33F
MULLAN PASS    CLEAR     46  30  53 S7        30.31F
ANACONDA         N/A     45  32  61 CALM      30.32S
DEER LODGE       N/A     43  32  65 CALM      30.34S
HAMILTON         N/A     48  32  53 CALM      30.30F
LIBBY            N/A     48  28  46 CALM      30.31F
PLAINS           N/A     47  33  58 E5        30.29F
$$

MTZ008-052>055-100100-
SOUTHWEST MONTANA

CITY           SKY/WX    TMP DP  RH WIND       PRES   REMARKS
BOZEMAN        CLOUDY    41  26  55 SW3       30.30F
DILLON         CLEAR     42  28  57 SW13      30.33F
THREE FORKS      N/A     46  18  33 CALM      30.26
TWIN BRIDGES     N/A     39  27  62 E6        30.28F
$$

MTZ009-010-012-014-046-048-049-054-100100-
EAST SLOPES AND CENTRAL MONTANA

CITY           SKY/WX    TMP DP  RH WIND       PRES   REMARKS
CUT BANK       MOCLDY    54  22  28 W24G33    30.10F
GREAT FALLS    CLEAR     57  24  28 SW23      30.13F
MALMSTROM AFB  CLEAR     59  24  25 SW23G30   30.12F
HELENA         CLEAR     44  33  65 W8        30.27F
CHOTEAU          N/A     61   9  12 W13G21    30.15S
CONRAD           N/A     60  25  26 MISG      30.13S
$$

MTZ011-013-016-021-045-047-050-051-100100-
NORTH CENTRAL MONTANA

CITY           SKY/WX    TMP DP  RH WIND       PRES   REMARKS
HAVRE          PTCLDY    53  31  42 SW6       30.06F
LEWISTOWN      CLOUDY    50  29  44 SW9       30.14F
CHINOOK          N/A     54  23  30 CALM      30.06F
$$

MTZ017>020-022>027-061-062-100100-
NORTHEAST MONTANA

CITY           SKY/WX    TMP DP  RH WIND       PRES   REMARKS
GLASGOW        CLEAR     44  34  67 W6        30.05F
JORDAN           N/A     51  34  52 W3        30.09F
SIDNEY         PTCLDY    41  21  45 NE9       30.09S
WOLF POINT     PTCLDY    45  34  65 W5        30.06F
PLENTYWOOD       N/A     34  25  69 SE7       30.06F WCI  28
POPLAR           N/A     41  28  60 E5        30.06F
SCOBEY           N/A     38  24  57 CALM      30.02F
$$

MTZ028>42-056>058-100100-
SOUTHCENTRAL AND SOUTHEAST MONTANA

CITY           SKY/WX    TMP DP  RH WIND       PRES   REMARKS
BAKER          CLEAR     45  28  51 NW3       30.09F
BILLINGS       PTCLDY    55  23  28 SW18      30.16F
LIVINGSTON     CLOUDY    50  27  40 NW10      30.26S
MILES CITY     CLEAR     51  30  44 W8        30.10F
EKALAKA          N/A     46  26  46 W7        30.07F
FORSYTH          N/A     59  27  29 W5        30.11F
LAUREL           N/A     53  24  32 S8        30.16S
ROUNDUP          N/A     59  24  26 W6        30.04F
$$

REGIONAL REPORTS...DAKOTAS

CITY           SKY/WX    TMP DP  RH WIND       PRES   REMARKS
WILLISTON      CLOUDY    36  23  59 SE3       30.09F
MINOT          CLOUDY    29  17  61 E13       30.13F WCI  19
DICKINSON      CLOUDY    36  22  56 E6        30.06F WCI  31
BEACH          CLOUDY    45  28  53 CALM      30.09F
CROSBY         CLOUDY    32  25  74 SE6       30.10F WCI  26
TIOGA          CLOUDY    32  27  80 CALM      30.13F
WATFORD CITY   CLOUDY    36  23  60 E3        30.10F
BISMARCK       CLOUDY    39  19  44 N8        30.14S
GRAND FORKS    CLOUDY     9   1  70 N14       30.28F WCI  -7
FARGO          CLOUDY    13   5  70 N12       30.27R WCI  -1
BUFFALO SD       N/A     45  29  53 NW9       30.03F
RAPID CITY     CLOUDY    45  29  53 NE10      30.10S
$$

REGIONAL REPORTS...WYOMING/IDAHO/WASHINGTON

CITY           SKY/WX    TMP DP  RH WIND       PRES   REMARKS
GILLETTE       CLEAR     46  30  53 W7        30.18S
SHERIDAN       CLEAR     57  23  26 CALM      30.14F
BUFFALO WY     CLEAR     54  24  31 NW7       30.21F
CODY           CLEAR     46  25  42 N5        30.25S
YELLOWSTONE LA   N/A     29  20  69 CALM      30.47S
IDAHO FALLS    CLOUDY    25  22  88 N6        30.50F WCI  18
SALMON         CLOUDY    27  18  69 CALM      30.48F
BOISE          SUNNY     44  32  62 SW3       30.46F
SPOKANE        PTCLDY    50  34  54 NE3       30.27F
$$

REGIONAL REPORTS...ALBERTA

CITY           SKY/WX    TMP DP  RH WIND       PRES   REMARKS
EDMONTON       CLEAR     43  27  52 W8        29.94F
CALGARY        MOCLDY    48  19  32 S6        30.01F
LETHBRIDGE       N/A     55  27  33 W21G29    30.04F
MEDICINE HAT   PTCLDY    45  34  65 SW6       30.01F
WATERTON GATE    N/A     54  25  32 SW18G33     N/A
CARDSTON         N/A     55  25  30 W10G17      N/A
MILK RIVER       N/A     52  23  32 W14         N/A
ONEFOUR          N/A     52  28  40 S5          N/A
$$

REGIONAL REPORTS...SASKATCHEWAN

CITY           SKY/WX    TMP DP  RH WIND       PRES   REMARKS
SWIFT CURRENT  CLEAR     43  36  75 W8        29.99F
REGINA         MOCLDY    28  25  86 SE13      30.05F WCI  18
SASKATOON      MOCLDY    30  27  86 SE8       30.00F WCI  23
CYPRESS HILLS    N/A     45  28  53 W3          N/A
VAL MARIE        N/A     45  30  57 W8          N/A
ROCKGLEN         N/A     39  32  75 W6          N/A
ASSINIBOIA       N/A     39  30  70 SW10        N/A
$$



USA.gov is the U.S. government's official web portal to all federal, state and local government web resources and services.